Satellite-Ground Cal/Val Site Overpasses Predictions

Prediction of Satellite NPP Overpassing Cal/Val Site: Antarctic Dome C

Ground Cal/Val Site Location: Latitude: -75.10, Longitude: 123.35; Satellite-Ground Site NADIR distance within 100 km.

Table of predicted overpasses for the next 14.0 days since TLE Epoch: 9/28/2015
Interval Starting Time Ending Time Minimum Distance Time Minimum Distance (km)
1 09/29/2015 07:28:13 09/29/2015 07:28:40 09/29/2015 07:28:27 34.28
2 10/01/2015 15:10:37 10/01/2015 15:10:48 10/01/2015 15:10:43 90.76
3 10/02/2015 14:51:37 10/02/2015 14:52:06 10/02/2015 14:51:52 20.52
4 10/04/2015 07:34:26 10/04/2015 07:34:55 10/04/2015 07:34:40 3.85
5 10/07/2015 14:57:52 10/07/2015 14:58:21 10/07/2015 14:58:06 16.39
6 10/08/2015 14:39:10 10/08/2015 14:39:22 10/08/2015 14:39:16 90.58
7 10/09/2015 07:40:41 10/09/2015 07:41:08 10/09/2015 07:40:55 39.13


NCC Satellite Cal/Val Overpasses Prediction Service
